This is the latest recevied weather packets stored in our database for station/object KQ4UWH. If no packets are shown the sender has not sent any weather packets the latest 10 day(s).
| Time | Temp. | Humidity | Pressure | Rain* | Wind** | Luminosity | Snow |
|---|---|---|---|---|---|---|---|
| 1777051269 | 26.67° C | 42% | 1239.7 hPa | 0 mm | - | 728 W/m² | - |
| 1777050964 | 26.67° C | 42% | 1239.7 hPa | 0 mm | - | 733 W/m² | - |
| 1777050660 | 26.67° C | 42% | 1239.7 hPa | 0 mm | - | 721 W/m² | - |
| 1777050356 | 26.11° C | 42% | 1239.7 hPa | 0 mm | - | 732 W/m² | - |
| 1777050050 | 26.11° C | 43% | 1239.7 hPa | 0 mm | - | 572 W/m² | - |
| 1777049749 | 26.11° C | 42% | 1239.7 hPa | 0 mm | - | 686 W/m² | - |
| 1777049447 | 26.67° C | 43% | 1239.7 hPa | 0 mm | - | 661 W/m² | - |
| 1777049144 | 25.56° C | 44% | 1239.7 hPa | 0 mm | - | 538 W/m² | - |
| 1777048840 | 26.11° C | 42% | 1239.7 hPa | 0 mm | - | 590 W/m² | - |
| 1777048535 | 26.11° C | 42% | 1239.7 hPa | 0 mm | - | 745 W/m² | - |
| 1777048234 | 26.11° C | 43% | 1239.7 hPa | 0 mm | - | 774 W/m² | - |
| 1777047930 | 26.11° C | 42% | 1239.7 hPa | 0 mm | - | 714 W/m² | - |
| 1777047627 | 25.56° C | 43% | 1239.7 hPa | 0 mm | - | 686 W/m² | - |
| 1777047322 | 25.56° C | 42% | 1239.7 hPa | 0 mm | - | 700 W/m² | - |
| 1777047019 | 25.56° C | 43% | 1239.7 hPa | 0 mm | - | 354 W/m² | - |
| 1777046716 | 25.56° C | 44% | 1239.7 hPa | 0 mm | - | 666 W/m² | - |
| 1777046410 | 25.56° C | 44% | 1239.7 hPa | 0 mm | - | 619 W/m² | - |
| 1777046106 | 25° C | 45% | 1239.7 hPa | 0 mm | - | 725 W/m² | - |
| 1777045804 | 25° C | 44% | 1239.7 hPa | 0 mm | - | 397 W/m² | - |
| 1777045499 | 25.56° C | 46% | 1239.7 hPa | 0 mm | - | 566 W/m² | - |
| 1777045195 | 25° C | 46% | 1239.7 hPa | 0 mm | - | 554 W/m² | - |
| 1777044891 | 25° C | 47% | 1239.7 hPa | 0 mm | - | 646 W/m² | - |
| 1777044585 | 24.44° C | 50% | 1239.7 hPa | 0 mm | - | 498 W/m² | - |
| 1777044283 | 24.44° C | 49% | 1239.7 hPa | 0 mm | - | 610 W/m² | - |
| 1777043978 | 23.89° C | 52% | 1239.7 hPa | 0 mm | - | 649 W/m² | - |
* Rain latest hour (hover to see other rain measurements)
** Current wind speed in m/s (hover to see current wind gust speed)